Regional Weather Roundup
Issued by NWS Kansas City/Pleasant Hill, MO

Home | Current Version | Previous Version | Text Only | Print | Product List | Glossary On
Versions: 1 2 3 4 5 6 7 8 9 10 11 12 13 14 15 16 17 18 19 20 21 22 23 24 25 26 27 28 29 30 31 32 33 34 35 36 37 38 39 40 41 42 43 44 45 46 47 48 49 50
000
ASUS43 KEAX 031210
RWREAX

WEATHER ROUNDUP FOR EASTERN KANSAS AND NORTHWEST MISSOURI
NATIONAL WEATHER SERVICE KANSAS CITY/PLEASANT HILL MO
700 AM CDT TUE AUG 03 2021

KSZ040-057-103>105-MOZ028-029-037-043-031300-
...KANSAS CITY METROPOLITAN AREA...

CITY           SKY/WX    TMP DP  RH WIND       PRES   REMARKS
K.C. INTL      PTCLDY    62  57  83 NE6       30.14R
6HR MIN TEMP:  61; 6HR MAX TEMP:  67;

K.C. DOWNTOWN  CLEAR     62  59  90 N3        30.12S
6HR MIN TEMP:  62; 6HR MAX TEMP:  69;

LEES SUMMIT    CLEAR     61  59  93 NE3       30.13S
6HR MIN TEMP:  60; 6HR MAX TEMP:  68;

OLATHE - IXD   CLEAR     62  56  80 NE5       30.13S
6HR MIN TEMP:  59; 6HR MAX TEMP:  67;

OLATHE - OJC   CLEAR     63  58  83 NE7       30.13R
6HR MIN TEMP:  62; 6HR MAX TEMP:  67;

LAWRENCE       CLEAR     56  55  97 NW3       30.13R FOG

$$

MOZ001>008-011>017-020>025-030>033-038>040-044>046-053-054-031300-
...NORTHERN AND CENTRAL MISSOURI...

CITY           SKY/WX    TMP DP  RH WIND       PRES   REMARKS
ST. JOSEPH     CLEAR     54  53  97 CALM      30.14S
6HR MIN TEMP:  53; 6HR MAX TEMP:  58;

MOSBY          CLEAR     55  55 100 CALM      30.14R
HARRISONVILLE  CLEAR     63  61  94 CALM      30.15R
WHITEMAN AFB   CLEAR     61  59  94 N5        30.08R
CLINTON        MOCLDY    63  63 100 NE5       30.10S FOG
SEDALIA        PTCLDY    63  61  93 CALM      30.12R
6HR MIN TEMP:  62; 6HR MAX TEMP:  65;

MARSHALL       CLEAR     61  59  94 NE3       30.13S FOG
CHILLICOTHE      N/A     60  58  92 CALM      30.15R
6HR MIN TEMP:  59; 6HR MAX TEMP:  62;

MOBERLY        CLEAR     59  55  88 CALM      30.14S FOG
KIRKSVILLE     CLEAR     58  57  97 NE5       30.14S
6HR MIN TEMP:  55; 6HR MAX TEMP:  60;


$$

MOZ041-047>049-056>058-063>065-088>090-097-031300-
...EASTERN AND SOUTHERN MISSOURI...

CITY           SKY/WX    TMP DP  RH WIND       PRES   REMARKS
ST. LOUIS INTL PTCLDY    66  60  81 NE5       30.11R
6HR MIN TEMP:  64; 6HR MAX TEMP:  70;

SPIRIT OF STL  CLEAR     61  60  97 CALM      30.10R
COLUMBIA       CLOUDY    65  62  90 NE6       30.12R
JEFFERSON CITY CLOUDY    67  61  81 SE3       30.11R
MEXICO         CLEAR     59  59 100 CALM      30.12S FOG
HANNIBAL       PTCLDY    63  63 100 CALM      30.13S FOG
ROLLA          CLOUDY    61  60  97 NW6       30.12R FOG
LEBANON        CLEAR     63  61  94 CALM      30.12S FOG
OSAGE BEACH    CLEAR     60  60 100 NE6       30.12R FOG
SPRINGFIELD    CLEAR     66  62  87 CALM      30.09R
BRANSON        CLEAR     64  64 100 CALM      30.11R FOG
JOPLIN         CLEAR     62  60  93 NE3       30.10R
WEST PLAINS    CLOUDY    65  62  90 CALM      30.11S
SIKESTON       CLEAR     63  63 100 CALM      30.07S

$$

IAZ060-094-KSZ022-034>040-054-083-096-NEZ052-066-093-031300-
...KANSAS...SOUTHEAST NEBRASKA AND IOWA...

CITY           SKY/WX    TMP DP  RH WIND       PRES   REMARKS
TOPEKA         CLEAR     58  55  90 CALM      30.13R
6HR MIN TEMP:  57; 6HR MAX TEMP:  64;

MANHATTAN      CLEAR     58  56  93 CALM      30.14R HAZE
EMPORIA        MOCLDY    60  59  96 CALM      30.13R FOG
OTTAWA         FOG       57  57 100 N3        30.11R VSB<1/4
CHANUTE        CLEAR     62  60  93 CALM      30.11R FOG
SALINA         CLEAR     60  55  83 CALM      30.13S HAZE
WICHITA        PTCLDY    62  58  86 CALM      30.12R HAZE
OMAHA          PTCLDY    58  57  97 CALM      30.14R
LINCOLN        CLEAR     55  52  89 CALM      30.16R
FALLS CITY     CLEAR     54  54 100 CALM      30.14R FOG
LAMONI         CLEAR     59  57  93 CALM      30.15R
DES MOINES     PTCLDY    60  57  89 W3        30.13S

$$




USA.gov is the U.S. government's official web portal to all federal, state and local government web resources and services.